RH
4 4 4 4 5 4 4 4 3 3 5 5 7 9 8 13 19 12 13 25 24 26 33 31 33 33 33 33 24 22 31 36 42 49 55 59 57 56 59 54 48 47 46 50 54 48 42 41 41 42 43 43 42 39 38 36 34 32 32 34 33 31 31 30 30 32 35 37 38 40 48 58 68 78 79 75 69 64 64 62 57 51 55 62 63 67
4 4 4 4 5 3 3 4 3 5 4 4 8 8 12 19 18 11 12 20 21 26 32 29 32 34 30 31 27 24 34 44 50 56 57 58 58 59 60 52 46 47 45 47 54 53 48 43 42 41 39 38 40 40 41 40 38 35 33 33 32 30 29 29 29 30 30 31 32 34 38 42 49 61 72 79 77 71 67 65 63 55 48 54 61 67
4 4 4 4 4 4 4 4 3 5 4 6 7 8 24 27 15 20 23 16 18 26 32 29 30 34 30 32 36 39 48 53 54 57 60 62 62 61 60 53 47 45 44 45 50 52 52 48 44 41 37 36 37 38 40 40 40 38 38 38 37 35 32 30 29 32 32 28 26 28 31 33 36 43 57 74 82 79 73 69 64 56 49 51 59 68
4 4 4 4 4 4 4 4 4 5 4 6 8 14 33 27 14 29 29 14 17 21 26 30 33 37 37 42 48 53 58 58 57 57 61 66 66 63 62 56 48 43 43 45 46 47 49 50 47 41 37 35 35 36 36 37 37 36 36 36 37 36 36 34 31 31 29 25 24 25 26 29 31 34 42 56 70 76 76 70 63 58 53 52 57 66
4 4 4 4 4 4 4 5 3 4 8 10 7 11 24 18 9 19 17 12 19 22 26 32 39 46 48 52 54 54 56 57 57 56 59 64 66 65 63 57 51 44 42 45 46 45 44 47 47 44 40 37 35 34 33 33 32 32 31 30 31 30 31 33 33 31 29 27 25 22 22 24 26 29 32 37 47 60 71 74 68 63 56 51 56 63
4 4 4 4 4 4 4 5 3 5 15 25 19 8 13 13 9 13 13 16 27 36 36 32 39 51 54 53 53 51 52 52 52 52 56 61 61 62 62 59 55 48 44 44 46 46 44 44 47 46 44 40 36 33 31 31 30 29 29 28 27 25 24 26 27 29 29 28 26 23 22 23 23 25 29 30 33 43 59 70 71 69 62 55 57 61
4 4 4 4 4 5 4 4 5 4 14 34 32 12 9 12 12 14 14 19 32 37 31 25 32 48 54 54 52 50 50 51 53 54 57 59 58 59 62 62 61 56 52 50 49 48 45 45 48 50 48 44 39 35 32 30 29 27 27 28 27 24 21 21 23 25 27 28 29 26 23 24 24 23 25 24 25 34 47 61 67 68 67 62 60 61
5 4 5 5 4 4 6 7 7 3 12 33 27 8 11 13 11 14 13 22 30 22 23 27 28 39 52 55 53 52 52 51 53 58 59 58 59 61 60 60 61 61 59 56 53 50 47 47 50 51 50 47 41 38 34 30 28 26 26 27 26 23 20 20 25 28 28 27 28 29 29 33 29 20 20 20 20 26 35 49 60 64 66 66 63 62
5 5 4 5 5 5 6 7 6 4 11 21 13 5 11 10 9 12 14 27 28 16 30 38 28 36 50 53 54 55 56 52 50 58 58 53 56 59 56 56 59 61 60 55 50 49 48 47 47 47 47 47 43 38 35 32 29 26 25 24 24 23 20 20 28 33 34 30 31 38 39 40 35 21 16 17 17 22 27 37 50 58 64 66 65 61
5 5 5 4 4 5 5 5 6 7 8 9 7 8 9 7 11 13 15 27 23 16 36 40 28 36 46 54 62 59 55 53 49 54 53 46 49 52 53 57 59 58 55 50 48 49 47 44 43 43 43 44 42 39 36 34 31 27 25 24 24 24 20 19 26 35 41 38 37 43 40 38 43 40 31 22 20 22 23 29 40 49 59 65 64 56
5 4 5 5 5 5 5 7 7 8 10 9 9 8 7 8 10 12 18 23 21 26 41 37 29 33 39 54 63 52 47 51 48 49 48 45 46 49 53 58 58 56 52 48 48 49 48 45 42 41 41 41 41 39 38 36 34 31 28 27 28 28 24 22 31 49 65 63 58 61 57 51 53 59 56 40 32 34 28 26 35 40 48 61 64 56
5 6 5 4 5 6 6 7 9 10 11 11 9 6 10 17 16 16 25 24 24 39 44 36 31 31 39 57 60 48 48 52 49 49 48 45 46 49 53 54 55 53 49 47 46 48 49 47 44 42 40 39 38 38 38 37 39 38 35 33 32 30 26 21 27 50 72 78 81 86 82 71 64 67 71 59 48 49 42 34 41 45 44 52 61 57
5 5 7 7 7 7 8 11 12 13 14 13 11 6 12 28 30 28 36 35 35 43 42 34 31 33 47 61 57 51 52 50 49 50 48 45 46 49 49 50 52 51 48 46 47 48 47 45 44 44 42 40 38 37 38 39 44 47 46 41 34 29 24 20 26 41 53 58 69 84 91 90 82 75 78 78 65 56 55 52 51 55 55 55 60 61
16 10 7 8 10 9 11 16 19 18 17 15 14 12 18 31 35 34 38 38 38 41 39 32 31 43 57 56 50 52 51 45 47 50 46 45 47 46 44 45 47 48 48 46 47 48 47 45 43 42 41 40 39 38 40 44 50 55 55 47 35 28 24 24 33 44 50 53 59 70 83 90 84 70 71 79 66 51 64 73 59 55 63 64 61 61
33 37 23 10 13 16 15 19 22 23 23 22 19 20 25 31 32 35 38 38 40 42 40 34 37 53 58 49 46 49 45 43 48 50 47 47 48 44 43 43 45 48 50 48 47 47 47 46 45 42 39 38 39 41 46 51 55 59 57 45 35 33 31 31 36 42 50 63 69 71 80 87 82 71 68 68 56 49 65 81 73 65 66 67 65 63
24 40 26 11 18 22 23 25 23 25 30 29 25 25 30 32 30 31 33 32 34 39 42 40 44 53 49 43 46 46 43 46 50 50 48 47 46 43 44 47 49 52 54 54 53 50 48 47 47 46 42 38 38 43 50 54 54 54 51 44 40 39 36 35 39 46 56 67 73 74 79 86 87 84 78 69 57 52 61 73 80 78 66 56 59 65
23 36 18 11 22 23 28 34 28 30 34 30 32 34 33 32 29 30 34 32 29 34 45 48 48 53 51 45 48 49 49 52 55 52 49 48 44 41 43 48 50 52 53 55 56 55 53 51 51 51 48 43 40 41 47 51 50 47 45 44 44 41 36 32 32 41 54 62 66 71 75 80 89 93 90 83 72 65 69 72 72 73 66 51 51 64
28 45 27 13 23 27 31 36 32 33 34 34 40 40 35 33 31 31 37 42 40 39 46 48 45 52 59 53 49 49 49 52 56 54 49 46 43 41 43 45 47 48 49 51 53 54 54 53 53 54 53 50 45 41 42 46 47 46 43 43 42 39 35 32 28 29 38 48 56 65 71 74 80 85 86 88 88 84 83 80 71 71 73 60 53 63
23 45 44 23 24 31 31 34 39 38 35 37 41 38 36 40 44 41 37 41 44 42 45 48 45 49 55 48 41 43 45 47 49 47 44 43 41 42 44 45 45 47 48 50 51 52 53 54 54 55 58 57 50 44 42 40 42 43 43 42 41 40 37 33 30 26 28 35 45 54 62 64 65 69 75 83 92 94 89 85 81 78 75 66 58 58
21 39 55 42 32 36 34 34 45 46 41 39 40 41 40 39 46 48 42 40 43 44 45 48 49 50 50 43 39 41 44 46 47 46 45 44 42 42 43 44 45 45 46 48 50 50 51 53 55 56 60 62 56 49 45 41 38 38 40 40 39 39 39 37 34 30 26 28 34 42 52 57 56 58 66 76 86 90 88 86 88 83 75 70 66 61
31 37 55 56 47 48 47 44 47 47 44 44 47 51 48 41 42 44 43 40 38 42 50 52 52 51 47 42 41 42 43 46 49 48 46 45 43 43 43 43 44 45 45 46 47 49 48 47 50 53 59 66 63 55 48 45 41 37 36 38 38 37 37 38 36 34 30 27 26 32 41 48 53 58 66 74 80 82 82 85 88 87 82 76 69 66
46 45 54 61 60 57 53 52 50 47 46 47 50 52 49 47 47 50 56 54 43 44 52 56 57 55 51 48 46 47 46 47 48 46 45 45 44 45 45 43 44 43 43 44 46 50 49 45 43 46 54 65 68 61 52 46 43 41 37 36 38 39 36 36 36 36 34 30 27 28 32 37 46 57 64 69 74 79 82 83 84 85 84 80 72 69
53 52 53 59 62 58 54 55 54 52 51 49 49 50 51 52 51 54 62 61 56 54 50 51 58 57 54 53 52 52 49 46 46 45 46 48 47 46 45 44 45 43 41 43 46 50 50 45 40 40 47 59 66 63 54 46 44 43 41 38 38 40 39 36 35 37 38 36 31 27 28 34 44 56 63 64 67 75 82 85 86 86 82 79 76 74
52 54 56 57 58 55 54 54 53 53 53 52 52 52 54 56 53 53 53 49 57 63 55 59 68 62 54 52 49 50 49 46 47 48 49 50 48 46 45 45 44 42 40 42 45 51 49 41 37 38 40 48 58 59 52 45 44 46 47 46 43 42 41 39 36 36 38 39 38 35 32 32 36 45 53 56 56 61 72 83 91 92 87 82 79 79
52 53 56 60 63 63 62 60 59 58 55 55 56 53 54 53 49 51 51 44 52 60 53 58 67 58 50 49 46 47 48 48 49 49 49 49 48 47 47 47 45 42 41 40 42 47 44 35 34 37 37 41 51 57 55 51 52 55 54 53 51 47 43 40 38 36 37 37 39 45 46 41 39 38 40 45 46 47 57 71 80 86 89 89 84 82
54 55 55 59 67 74 77 77 73 67 60 57 55 50 50 49 45 48 48 46 52 52 44 50 56 48 44 45 46 47 47 48 50 49 49 49 50 50 49 49 47 43 41 40 39 40 36 30 29 33 35 39 46 54 59 60 63 64 63 60 59 55 48 43 39 36 36 35 38 51 60 61 56 45 34 34 38 40 44 52 59 67 77 86 88 86
54 55 55 54 57 63 66 65 61 58 55 54 53 49 46 45 42 42 42 45 50 46 42 48 50 41 38 40 42 44 45 47 49 50 51 52 52 52 50 49 49 45 41 40 39 37 32 27 26 27 29 32 37 45 50 55 61 64 65 64 62 58 54 49 44 40 37 35 37 51 67 70 61 47 36 31 31 32 34 40 47 57 68 80 87 88
47 48 48 47 47 48 48 48 47 46 46 46 46 45 42 39 37 34 33 37 41 41 43 46 42 38 38 37 38 40 41 43 46 47 49 51 51 50 48 45 44 43 40 38 36 33 29 29 30 28 27 25 26 31 39 47 54 58 59 60 58 57 55 52 49 46 43 40 40 50 65 68 60 50 45 41 36 31 29 30 38 52 66 75 82 87
39 41 40 37 38 38 37 39 38 37 37 36 35 34 33 30 28 26 25 27 31 36 39 38 35 37 39 38 40 40 39 40 42 42 45 46 46 44 43 45 46 44 43 41 38 32 29 32 34 32 33 31 24 22 28 36 44 52 57 58 57 57 56 52 50 48 48 47 46 53 62 63 60 58 56 52 47 42 37 31 30 38 51 63 71 77
31 33 29 28 29 27 25 26 26 24 24 23 23 22 21 20 19 18 17 18 21 25 28 28 28 28 29 31 34 34 34 35 36 38 40 40 42 43 39 40 46 50 53 55 53 48 41 38 40 43 45 42 33 24 24 30 35 44 54 59 60 59 57 55 52 50 50 51 51 56 61 60 60 63 64 61 56 50 46 43 36 31 33 41 50 58
24 24 20 20 21 19 16 16 16 16 15 14 14 14 13 13 13 13 12 12 13 14 16 18 18 18 18 19 21 21 22 23 23 26 28 28 37 49 50 49 52 53 59 66 66 62 54 44 43 50 53 49 40 30 27 31 35 40 47 55 61 63 61 60 59 56 54 54 55 57 60 60 61 63 65 66 64 56 49 46 44 39 33 29 31 38
18 17 15 14 15 14 13 11 11 12 11 11 11 11 12 12 11 11 11 11 12 12 12 13 12 13 13 13 14 14 14 14 14 16 18 17 21 33 45 54 53 47 51 59 58 56 54 47 43 47 51 48 42 38 34 33 38 45 51 54 61 67 70 69 68 63 58 57 57 57 59 61 62 62 63 64 66 65 57 48 43 42 39 33 28 27
12 12 12 11 11 13 11 9 10 11 10 9 9 9 10 10 8 9 8 8 9 9 9 10 10 9 9 9 10 9 9 10 11 11 13 14 14 16 24 33 35 33 35 39 43 50 59 62 63 62 58 51 48 51 48 39 38 46 54 61 69 75 78 79 76 70 63 59 58 58 60 61 58 55 55 57 60 65 65 58 49 43 42 40 35 30
10 11 11 10 10 11 8 7 9 9 7 8 7 7 8 7 6 6 6 6 6 6 6 7 7 6 7 7 6 7 8 8 8 9 10 12 17 21 24 28 32 33 33 38 52 66 73 77 80 75 63 55 57 63 59 45 40 47 58 71 82 84 83 84 83 79 72 65 63 62 62 62 59 51 46 45 49 57 64 66 59 48 42 43 41 36
8 9 9 8 9 10 7 7 8 8 7 7 6 6 6 6 6 6 7 7 7 8 9 9 10 10 10 11 12 14 17 17 18 19 20 23 30 35 38 40 41 43 49 59 72 79 76 73 71 69 64 61 61 64 60 48 44 51 59 69 81 85 84 83 81 80 77 72 68 66 64 64 60 50 40 36 44 60 71 76 73 60 47 44 43 41
10 10 10 9 10 9 8 8 9 9 9 9 8 9 8 8 10 11 12 15 19 21 21 19 18 16 14 16 18 21 25 28 28 27 26 27 32 37 41 45 49 57 66 72 76 78 75 64 55 57 64 64 60 62 64 59 53 53 53 56 66 74 75 73 72 71 71 67 61 55 53 53 50 45 38 34 39 52 60 67 74 69 55 47 44 43
16 16 15 14 14 13 12 13 13 12 12 12 12 12 11 13 16 16 20 26 29 28 27 24 21 19 18 18 19 21 23 23 24 26 28 27 25 26 28 31 37 46 52 55 56 58 56 49 44 49 58 60 56 55 62 67 65 57 50 49 55 61 62 64 66 64 62 58 51 42 35 34 36 37 36 33 35 38 39 48 66 75 69 59 50 43
19 18 17 16 16 15 14 14 13 13 14 18 21 18 15 16 17 16 21 30 35 35 34 31 27 26 27 25 23 23 24 24 31 42 45 39 33 30 29 27 26 28 29 30 32 31 30 29 31 37 44 48 47 45 50 57 58 53 49 49 53 55 57 61 64 64 61 58 52 42 31 27 32 37 40 42 42 40 37 38 51 68 75 71 59 47
23 22 21 20 19 18 18 17 16 18 22 27 28 23 18 19 20 18 22 31 40 45 44 42 41 40 38 34 30 29 30 33 41 48 45 38 34 33 32 30 28 26 23 22 22 21 21 22 22 25 29 31 33 35 37 39 38 36 39 41 41 41 45 54 58 57 56 56 54 47 36 28 29 37 47 53 50 50 52 49 47 54 65 68 64 54
24 24 23 23 23 21 21 20 21 25 27 25 24 23 23 21 20 23 30 37 45 52 53 52 53 51 44 39 35 33 34 36 36 34 30 29 29 28 27 26 25 24 23 21 20 19 19 18 18 19 20 20 21 23 25 26 25 25 26 27 27 26 32 46 54 49 42 42 44 43 40 36 33 36 44 48 45 47 54 56 53 54 58 64 67 62
22 22 21 21 20 20 23 26 25 25 26 24 23 24 21 19 22 32 45 53 54 54 53 49 46 42 35 31 29 27 27 27 26 24 23 23 23 22 22 21 20 20 20 19 18 17 16 15 15 14 14 14 15 16 17 18 20 21 21 23 25 25 28 38 47 46 39 36 36 35 34 35 38 41 45 45 46 50 53 51 53 54 54 56 62 64
19 19 19 20 23 23 26 30 28 26 27 26 22 18 17 26 41 49 51 51 44 37 32 28 26 24 22 22 22 22 21 21 21 21 20 19 19 18 17 16 15 14 13 12 10 9 9 8 8 8 8 8 8 9 11 11 12 14 16 18 20 22 24 28 32 34 34 35 38 38 35 32 33 39 44 43 44 51 57 54 52 51 50 51 55 61
16 15 15 19 22 21 21 27 31 30 26 19 18 21 24 33 42 39 30 26 23 19 18 18 17 18 19 19 19 18 18 17 17 15 14 13 12 11 9 9 8 7 6 6 5 5 4 4 4 4 5 5 5 5 5 6 6 8 10 12 13 15 18 21 24 25 26 29 34 37 38 36 32 31 37 40 39 42 50 52 48 47 47 47 51 56
15 15 14 16 17 15 15 21 25 23 18 13 16 24 24 21 20 17 15 17 17 16 16 17 16 16 17 16 16 14 13 13 12 11 10 9 8 7 6 6 5 5 4 4 4 4 4 4 5 5 5 5 5 5 5 5 6 5 5 7 7 8 11 15 20 23 25 27 30 33 34 36 35 31 30 33 34 35 40 45 45 44 43 44 49 55
16 17 16 16 16 16 16 17 17 16 16 15 16 17 16 14 15 15 15 15 15 15 16 15 15 15 15 14 14 13 12 11 10 9 8 7 6 5 5 5 5 4 5 5 5 5 5 6 6 7 8 9 9 10 11 11 11 10 9 8 7 6 7 9 14 20 24 26 29 32 32 32 34 35 34 33 32 31 32 37 41 42 44 49 52 55
18 19 19 18 18 18 18 18 19 19 19 18 18 17 16 16 16 15 15 15 15 16 16 15 15 14 14 14 14 13 12 10 9 8 7 6 6 5 5 5 5 5 6 7 7 7 8 9 11 13 14 17 19 20 21 22 21 19 15 13 11 9 7 6 8 13 20 26 28 31 34 34 33 34 35 36 38 36 34 36 39 40 46 56 57 54
22 21 21 21 21 22 22 22 22 22 22 21 21 20 19 19 17 16 16 15 15 15 14 14 14 14 13 13 13 13 11 9 8 8 7 6 6 6 5 6 7 8 8 9 10 12 14 17 20 21 21 23 25 26 27 28 27 25 21 18 16 14 11 9 7 6 10 19 26 30 32 35 35 35 34 34 38 44 44 42 43 41 41 47 50 48
26 25 25 25 25 26 25 25 26 26 25 25 23 22 22 22 20 18 16 15 14 14 13 13 13 13 13 13 12 10 9 8 8 7 6 6 6 6 7 8 9 9 9 11 15 20 23 25 25 25 24 24 24 25 25 26 27 28 28 27 25 24 21 18 15 11 7 9 17 26 32 33 34 36 36 32 33 41 46 46 47 46 40 39 41 41
29 29 29 30 30 29 29 28 29 28 26 24 23 23 22 21 20 19 17 15 14 13 13 12 12 12 11 10 9 8 7 7 6 5 5 6 6 7 8 9 9 10 12 18 23 26 26 26 25 24 25 25 24 23 23 23 25 26 27 28 29 30 30 29 26 22 16 10 9 15 26 33 34 34 36 34 31 34 39 43 46 46 40 35 36 36
31 31 32 32 31 29 27 25 26 27 26 23 23 23 23 22 21 20 17 16 15 13 12 12 11 10 9 8 7 7 6 6 6 6 6 6 7 8 9 9 11 15 20 23 24 22 21 21 22 22 23 23 23 22 22 23 25 25 24 26 27 29 31 33 31 27 22 18 12 10 16 28 34 33 33 35 33 32 33 37 40 41 38 34 31 31
28 27 26 26 25 22 20 20 22 25 27 26 24 24 24 23 22 20 18 16 15 13 11 10 9 9 8 8 7 6 6 6 6 5 6 8 8 8 8 10 15 21 22 21 18 18 20 22 24 25 26 26 26 25 26 27 28 27 25 23 24 26 30 34 35 32 25 20 17 13 11 19 29 34 33 33 34 33 32 33 34 34 35 34 31 30
Wind_Speed
1 1 2 3 3 4 3 3 3 4 4 3 4 5 7 8 10 10 7 5 5 4 6 6 6 8 9 10 10 5 4 6 8 8 10 12 12 12 10 9 9 7 5 5 5 5 5 5 6 7 7 8 8 8 8 8 8 9 9 10 10 10 10 11 12 12 13 14 14 15 15 15 14 13 13 14 13 11 11 10 10 11 10 9 9 8
2 3 4 5 4 5 5 4 4 4 4 3 4 6 8 9 10 10 7 6 5 4 6 6 6 8 9 8 8 4 4 5 6 7 10 12 11 10 8 7 7 6 4 5 6 5 4 4 5 5 6 7 7 8 8 8 8 8 9 9 10 10 10 11 11 11 12 14 14 15 16 16 16 15 13 12 12 13 13 11 10 10 10 9 9 9
3 4 5 5 5 6 5 5 5 5 5 4 5 6 7 9 9 8 7 6 5 3 5 7 6 7 8 7 5 4 5 6 5 6 9 11 10 9 8 7 7 6 4 4 6 6 5 4 4 5 5 6 6 7 7 7 8 8 8 9 10 10 11 12 12 13 13 14 14 15 16 17 18 17 14 11 12 13 13 13 11 9 9 9 9 10
4 6 7 6 7 7 7 7 6 7 6 6 6 5 5 8 6 5 7 6 6 4 4 7 6 6 6 4 3 5 7 6 4 6 9 9 9 10 10 8 7 7 6 5 6 8 7 5 5 6 6 6 7 7 7 7 7 7 8 8 9 10 11 12 14 15 15 15 15 16 17 18 19 19 16 13 12 12 13 13 11 10 9 8 10 11
6 7 7 7 8 9 9 9 8 8 7 8 8 6 7 9 6 6 8 7 7 7 5 7 8 8 5 2 3 5 7 6 5 6 8 8 9 11 11 10 9 8 7 7 8 9 9 8 7 6 7 7 8 8 8 8 7 8 8 8 9 10 12 13 15 17 17 18 18 18 19 20 20 19 18 16 14 13 12 12 12 11 10 9 10 11
7 7 8 9 10 10 10 10 10 8 7 9 12 9 7 8 7 7 8 7 8 9 9 8 8 9 6 2 2 4 6 7 6 6 8 8 10 12 11 10 9 8 9 9 10 11 11 10 9 8 9 9 9 9 9 9 9 8 8 9 9 10 12 14 16 18 19 19 19 20 20 21 21 20 20 18 17 14 13 13 12 12 11 10 10 12
8 8 9 10 11 11 11 11 11 9 6 7 13 13 9 9 9 8 8 7 7 9 9 8 8 8 8 5 3 5 5 6 5 3 5 8 10 12 12 11 11 10 10 10 11 13 12 11 10 10 10 10 10 10 10 10 10 10 9 9 10 11 12 14 15 18 19 20 20 21 21 22 22 22 22 21 19 16 15 13 12 13 13 12 11 12
9 9 10 11 12 11 11 11 12 9 6 10 15 14 10 11 10 9 8 8 10 9 6 8 8 8 9 5 3 6 7 8 8 3 3 6 10 11 13 13 13 12 10 11 12 13 12 11 11 12 11 11 11 11 11 10 10 10 10 10 10 11 12 13 15 16 18 20 21 21 21 22 24 24 24 23 21 18 17 15 14 14 14 13 12 12
10 11 11 11 12 11 11 11 10 7 6 11 14 12 12 12 10 9 7 9 12 8 6 9 9 7 9 7 4 7 8 7 12 9 9 10 12 12 13 13 12 11 10 11 11 12 11 10 11 12 11 11 11 11 11 11 11 11 11 11 12 12 12 13 14 16 19 21 21 21 22 23 24 25 25 25 23 21 19 18 16 15 15 15 14 14
11 12 12 12 12 11 11 10 8 7 7 10 11 10 12 10 9 10 7 10 12 6 6 10 9 6 8 9 6 7 7 10 13 14 15 15 14 13 13 13 11 10 10 11 11 11 11 11 12 12 12 10 11 12 13 13 13 12 12 12 13 14 15 15 15 17 18 19 20 21 23 24 23 23 24 25 24 22 21 20 19 18 17 16 15 16
12 12 12 12 11 11 10 9 8 7 7 8 9 10 10 9 9 9 7 11 11 8 9 10 8 7 6 8 9 7 9 12 14 16 17 16 14 12 12 11 10 11 11 12 12 12 12 12 12 13 13 12 12 13 14 15 15 15 15 15 15 17 18 18 18 19 20 21 22 22 24 25 25 24 23 23 22 21 21 21 21 22 20 17 17 17
12 12 12 11 10 10 9 8 7 7 6 7 8 8 8 8 10 8 8 11 8 8 12 9 8 7 5 8 11 10 10 10 13 15 16 15 12 11 11 10 11 11 12 12 13 12 12 12 12 13 14 13 13 14 15 16 18 18 18 18 18 19 20 21 22 25 26 26 26 26 27 26 25 25 23 22 22 20 20 20 20 22 23 21 19 17
12 12 11 10 10 9 8 8 7 6 6 6 7 7 5 7 10 8 9 10 7 10 13 10 8 8 7 10 9 7 9 9 11 13 15 14 11 9 10 10 11 12 12 13 13 12 13 13 13 13 14 14 14 16 17 19 20 20 20 19 19 19 21 22 22 26 28 26 26 26 24 21 20 21 21 20 21 21 20 20 21 21 23 22 19 17
11 12 11 10 10 8 7 7 7 7 7 6 6 6 4 7 10 9 10 10 8 11 12 9 8 7 8 10 5 4 9 10 10 12 14 13 9 9 11 11 11 13 13 13 13 13 14 15 15 15 15 16 17 18 19 21 22 23 21 18 19 20 22 23 23 24 26 24 24 23 19 17 17 20 21 20 21 21 20 20 21 22 22 22 21 18
8 8 10 11 10 8 8 7 7 7 7 6 7 6 5 8 10 10 10 9 8 10 11 8 7 6 8 9 6 6 9 8 9 12 13 12 9 10 11 12 13 14 15 16 15 14 15 16 17 17 17 17 18 19 19 21 23 21 17 16 18 21 22 24 24 24 22 20 20 19 17 16 17 19 21 22 23 23 22 22 22 22 23 22 20 19
10 12 12 10 10 10 9 9 9 7 7 8 7 6 7 8 10 10 11 11 10 10 11 10 8 8 10 8 6 7 9 8 10 12 12 10 8 12 13 14 14 15 17 18 17 17 16 17 18 19 18 18 18 19 19 21 20 16 13 15 18 21 22 23 23 22 19 15 16 17 17 17 18 19 21 23 24 24 24 23 21 21 23 23 20 18
11 14 14 11 11 11 10 11 11 9 9 8 6 7 10 10 11 11 10 12 12 10 11 12 8 9 12 10 7 10 12 10 12 15 13 8 8 13 15 15 15 16 18 19 19 19 18 18 19 20 19 18 18 18 18 18 16 13 13 15 18 19 20 20 21 20 17 14 16 17 18 18 18 19 22 24 25 25 25 24 22 22 23 25 22 19
11 13 14 12 12 12 12 13 13 13 12 8 6 9 12 11 11 11 11 11 12 9 12 14 9 8 12 11 7 10 13 12 14 15 11 11 15 17 17 16 16 17 20 21 21 21 21 21 21 21 20 19 18 17 16 15 14 12 12 15 16 17 18 19 19 19 17 16 16 16 16 16 17 17 19 21 23 25 24 24 25 24 23 23 24 23
11 12 13 13 13 13 14 13 14 17 16 12 12 13 12 10 10 11 11 12 13 11 12 14 12 12 15 14 11 13 15 15 17 17 16 18 20 20 20 20 19 18 20 22 23 24 24 24 24 24 22 20 19 18 16 15 13 12 12 13 15 16 17 17 18 19 19 17 16 15 15 15 15 14 14 17 20 22 23 24 26 25 23 24 26 26
11 11 12 14 14 13 15 14 14 17 17 15 15 15 15 13 11 12 13 14 14 13 13 14 14 15 15 13 13 14 15 17 19 21 21 21 23 23 23 23 22 21 20 22 25 26 27 27 27 27 25 22 20 18 17 16 15 14 13 14 15 15 15 16 17 19 20 19 18 17 16 15 14 13 13 15 16 19 23 25 26 25 25 26 26 26
12 12 12 13 12 13 14 13 13 15 16 16 15 15 17 16 14 14 15 16 16 15 15 15 16 18 14 11 12 14 15 17 18 21 23 24 25 25 26 26 25 24 23 23 26 28 29 29 28 28 26 23 21 20 19 18 17 16 14 14 15 15 14 14 16 17 18 19 20 19 18 17 17 17 17 16 15 16 20 23 24 23 24 25 25 25
11 11 12 12 12 14 13 11 12 14 15 17 17 17 17 17 17 16 14 16 16 15 16 16 18 21 17 12 13 15 16 18 20 22 24 26 27 28 28 28 28 28 27 26 27 29 30 31 29 28 26 24 22 21 20 19 19 18 16 15 15 16 16 15 15 15 15 16 17 18 18 17 17 18 18 17 16 15 15 19 24 24 23 23 22 23
10 11 13 12 12 12 12 12 14 15 16 18 19 19 18 18 19 17 16 18 17 17 18 18 19 23 21 15 14 16 19 21 22 24 25 27 29 30 30 30 30 30 30 29 29 30 32 32 30 28 26 24 23 22 22 21 20 20 19 17 16 16 17 17 16 16 15 14 15 16 16 15 14 15 17 16 15 14 12 13 19 23 22 22 22 22
10 12 13 13 12 12 13 14 15 15 16 17 18 19 19 19 20 20 21 22 20 21 22 19 21 25 22 18 17 19 21 23 25 26 27 28 31 32 32 32 33 32 32 31 31 31 33 33 31 29 27 25 24 23 23 22 22 22 21 19 18 16 17 18 18 18 18 17 17 16 15 15 15 16 17 17 16 14 12 9 11 16 20 21 21 22
12 13 13 13 13 13 14 15 15 15 15 15 16 17 18 21 22 22 25 25 24 26 26 23 26 28 24 22 22 23 24 25 27 28 29 31 32 34 34 34 34 34 33 33 32 33 34 33 31 30 28 26 25 24 24 24 24 24 23 21 19 18 17 18 19 20 21 20 20 18 15 15 17 19 20 19 16 13 10 8 8 9 13 18 21 22
14 15 15 15 15 14 13 13 13 14 15 16 18 18 19 21 21 22 24 25 26 29 28 26 29 30 27 27 28 29 29 29 30 32 32 33 34 35 36 36 36 36 35 35 35 35 35 34 32 32 30 28 26 25 25 25 25 26 26 25 24 21 20 19 19 20 22 22 22 19 15 15 17 20 21 19 17 14 11 9 10 10 9 12 17 21
17 17 17 17 18 18 17 16 16 17 19 20 21 22 23 24 23 23 24 25 27 28 27 27 30 30 29 29 30 31 32 33 33 34 34 34 35 36 37 37 37 37 37 37 37 38 38 37 36 35 33 30 29 27 27 26 27 28 28 29 29 27 24 22 21 21 22 22 21 18 16 15 15 17 19 18 17 16 14 12 12 13 11 9 11 15
19 20 20 19 20 21 21 22 22 22 22 24 24 25 27 28 28 27 27 28 29 30 30 31 32 32 31 31 31 32 33 33 34 34 34 35 36 37 37 38 38 38 38 38 38 39 39 39 39 38 37 34 32 30 29 29 30 30 30 30 30 30 27 25 24 24 23 23 21 18 16 14 13 15 17 17 17 17 17 16 14 12 11 9 8 9
20 22 22 21 22 23 23 23 24 24 25 26 27 28 29 30 30 30 30 30 31 31 33 33 33 33 33 33 33 33 33 33 34 35 35 36 37 38 38 38 38 39 39 39 39 39 39 39 39 40 39 38 36 34 32 31 32 32 32 31 31 30 29 27 26 25 25 24 22 20 19 16 14 16 17 16 16 16 17 17 16 13 10 9 8 7
20 23 22 21 23 24 23 23 24 25 26 27 28 28 29 29 30 30 31 31 31 32 34 35 35 35 35 35 34 34 35 35 36 36 37 37 38 38 39 38 38 38 39 39 39 39 39 39 39 40 39 38 38 38 35 34 33 33 33 32 32 31 30 29 28 27 27 27 25 22 21 18 17 17 17 16 15 14 14 15 16 15 13 11 10 9
21 23 21 20 22 24 23 22 22 23 24 25 26 26 26 27 28 29 30 30 30 32 33 34 35 35 35 35 35 35 35 36 36 37 37 37 37 37 38 38 38 38 39 39 39 39 40 40 40 40 39 37 37 39 39 37 36 35 35 34 33 32 31 31 30 28 28 29 28 26 23 20 19 18 19 18 17 15 13 13 13 13 13 12 12 12
22 22 22 21 22 24 24 21 20 22 23 24 24 22 22 24 26 27 27 27 27 29 30 31 33 33 33 34 33 33 33 34 35 35 36 36 37 37 37 38 39 40 40 39 40 40 41 42 42 41 39 36 35 38 40 39 38 37 37 36 35 34 32 31 30 29 29 29 30 30 28 24 22 21 21 21 20 18 16 15 14 13 13 13 13 14
21 22 23 22 21 24 24 21 21 23 23 23 22 20 21 24 24 25 26 25 26 26 28 30 32 32 31 31 32 32 32 32 33 34 34 35 35 36 37 39 40 41 41 41 41 41 40 40 39 40 39 36 34 36 39 40 39 38 38 38 37 36 34 33 32 31 30 30 31 32 32 29 26 24 23 24 23 22 20 18 16 15 14 14 14 15
21 22 23 23 22 25 25 22 23 25 25 24 22 22 24 25 25 27 27 27 28 28 29 32 33 33 32 33 34 34 33 33 35 35 35 34 34 35 37 38 40 40 41 41 41 39 38 37 36 36 35 33 33 36 37 37 37 37 38 39 39 38 37 35 34 32 32 32 32 32 33 33 31 29 27 26 25 25 24 22 20 18 17 16 16 16
22 23 24 24 24 27 26 24 26 28 27 26 26 27 28 29 29 30 30 30 31 30 32 33 34 34 33 34 34 34 33 33 33 34 35 34 34 35 36 37 39 39 39 39 39 38 38 37 34 33 32 32 34 37 37 36 35 35 38 40 41 40 38 37 36 35 34 33 33 34 34 35 35 34 31 29 26 25 25 23 22 21 20 19 18 18
24 25 26 26 26 28 28 28 29 30 30 29 29 30 31 31 31 31 30 30 30 30 31 32 32 32 32 32 32 32 31 31 31 32 32 33 34 35 36 37 38 38 38 39 39 40 40 39 37 36 35 36 38 38 38 37 36 36 38 41 42 42 42 40 39 38 36 34 34 35 36 37 37 37 34 31 28 26 25 24 24 24 23 22 21 20
24 25 26 26 26 27 29 30 30 30 30 30 30 30 31 30 30 30 28 27 27 28 30 31 32 32 31 31 31 30 30 31 32 32 31 32 34 35 36 38 39 40 41 41 42 42 42 42 41 40 40 40 41 41 40 40 40 40 42 43 43 44 45 45 44 41 39 37 36 36 37 38 38 38 36 34 31 30 29 28 26 25 25 25 24 22
22 22 23 24 24 24 26 28 28 28 29 28 27 27 29 29 29 30 28 25 25 27 29 31 32 32 31 30 31 31 31 32 32 30 29 32 34 34 36 37 38 40 42 42 43 43 43 43 42 42 42 42 42 43 43 43 44 44 45 45 45 46 47 48 47 45 44 42 39 38 38 39 39 39 37 35 33 31 31 31 29 28 27 28 27 26
20 20 21 22 22 22 23 24 26 27 26 25 25 26 27 27 28 29 29 26 25 27 29 30 30 31 31 31 32 32 33 33 33 33 33 36 38 38 38 39 39 40 41 41 42 43 42 43 43 43 44 44 43 44 45 46 47 47 47 47 48 49 49 48 47 45 44 44 42 40 39 39 40 40 37 35 33 31 30 30 31 31 30 30 30 29
19 19 20 20 21 22 22 23 25 26 26 26 27 27 26 27 28 28 28 27 26 27 29 29 29 30 31 32 33 34 34 35 36 38 39 40 40 41 41 41 41 42 42 42 43 43 42 42 42 43 43 44 44 45 46 47 48 49 49 49 50 51 50 49 48 46 45 45 44 43 41 40 40 40 38 36 34 31 30 31 31 31 31 31 30 30
19 19 20 20 21 22 22 23 26 27 26 27 27 27 27 28 28 27 26 27 27 28 29 30 31 32 34 34 35 36 36 37 38 39 40 40 40 41 42 43 43 43 43 43 43 43 42 42 42 42 42 42 42 43 44 46 47 48 49 49 50 51 51 51 51 50 48 47 46 46 44 42 40 40 39 37 34 32 31 32 32 32 32 31 31 31
18 19 20 20 21 21 21 22 25 26 26 26 27 28 29 28 26 25 26 28 30 32 33 34 35 36 36 36 36 36 37 37 38 38 39 39 39 40 40 41 41 42 42 42 42 42 42 41 41 41 41 42 42 42 43 44 45 46 48 48 50 50 51 51 52 51 50 49 47 47 47 44 42 41 41 39 36 33 31 31 32 33 33 32 31 31
18 20 21 20 20 21 22 23 25 26 26 27 28 28 28 27 27 29 31 33 35 36 36 36 36 36 37 37 37 37 37 37 37 37 37 37 37 37 37 37 38 38 39 40 41 41 42 42 41 41 42 42 43 43 43 44 45 46 47 48 49 50 50 51 52 51 50 49 47 47 47 46 44 43 43 42 39 35 32 31 32 33 34 34 32 31
19 20 22 21 21 23 24 24 26 27 28 29 29 29 29 30 32 33 34 35 36 36 36 37 37 37 37 37 37 37 37 36 36 35 35 35 35 35 36 36 37 38 39 39 41 41 42 42 42 42 42 43 43 43 43 44 44 44 45 47 48 50 50 51 52 52 51 50 48 47 47 47 45 43 44 45 42 39 36 34 33 33 34 35 34 33
21 21 23 24 23 24 25 26 27 28 30 30 31 31 32 33 33 34 35 35 36 36 37 37 38 38 38 37 37 37 36 36 35 34 34 34 35 36 37 37 38 39 40 41 42 42 43 43 43 43 42 42 43 43 44 44 45 44 44 44 46 48 49 49 51 52 53 51 49 48 47 48 46 43 44 46 45 42 39 37 35 34 34 35 36 35
22 22 23 25 25 25 27 28 29 30 31 31 32 32 33 34 34 35 35 36 36 37 37 38 39 39 38 38 37 37 36 35 35 34 35 35 36 37 38 38 39 40 41 42 42 43 43 42 42 41 41 40 40 41 42 42 42 42 42 42 43 44 46 47 48 51 52 52 51 48 47 48 47 45 44 45 46 44 41 39 37 36 34 35 37 36
23 24 25 26 26 27 29 30 30 31 32 32 33 33 33 33 34 34 35 36 37 37 38 39 39 39 38 37 37 36 36 35 36 36 36 37 37 37 38 39 39 40 40 41 41 41 41 41 40 39 39 38 39 39 40 39 39 39 38 38 39 40 42 44 45 47 50 52 51 50 48 48 48 46 44 44 45 45 42 40 38 37 36 36 37 37
26 27 28 28 29 30 31 32 31 32 33 34 33 33 32 33 33 34 35 35 36 37 38 38 37 37 37 37 36 36 36 36 36 37 36 36 37 37 38 39 39 39 39 39 39 39 39 39 39 39 39 39 39 39 39 39 39 38 38 38 38 38 39 40 41 43 46 49 50 50 48 47 48 48 46 45 45 45 43 41 39 38 37 37 38 37
29 30 30 31 31 33 34 33 32 33 36 36 34 33 33 33 33 34 34 35 35 36 36 36 35 35 35 35 36 36 36 36 36 36 36 36 37 37 38 38 38 38 37 37 37 38 39 39 39 39 39 39 39 38 38 37 37 38 38 39 39 39 39 38 39 40 43 46 48 49 48 47 47 48 47 46 45 45 44 42 41 40 39 38 39 38
32 32 31 32 33 35 36 35 33 33 36 37 35 33 33 33 33 33 34 34 34 34 34 33 33 33 34 35 35 35 35 36 36 36 36 36 37 37 38 37 35 35 35 35 36 36 37 37 36 36 36 36 36 36 35 34 35 36 37 38 38 39 39 38 37 38 39 42 45 47 47 47 47 47 47 46 46 45 44 43 42 41 40 40 40 40
33 33 33 34 35 36 36 36 34 33 34 35 35 33 32 33 33 33 33 33 33 33 32 32 33 33 34 34 34 35 35 36 36 36 36 36 37 37 36 35 33 32 33 33 33 33 33 33 33 33 33 34 34 34 33 33 33 34 35 36 37 37 37 36 36 36 36 38 41 44 46 46 46 46 46 46 46 45 44 44 43 41 40 40 40 40
Wind_Direction
268 294 295 304 319 328 341 349 338 341 344 342 346 332 332 341 328 328 339 302 294 312 308 323 337 342 354 351 347 2 1 346 346 343 338 344 352 353 352 351 348 342 344 2 353 327 321 319 319 315 313 309 303 298 292 286 282 278 277 275 272 271 267 266 266 264 266 266 266 268 269 269 269 265 261 261 263 265 265 268 272 275 279 278 273 266
287 290 295 312 324 330 337 338 331 328 327 330 322 319 334 338 325 328 332 307 309 314 304 324 336 339 351 346 339 353 349 339 344 343 338 342 348 346 344 348 346 334 324 352 358 339 322 313 314 316 317 315 310 305 297 291 289 286 285 283 280 277 273 269 269 270 269 265 264 267 269 270 271 269 267 267 266 261 256 258 265 270 272 268 265 259
281 281 291 311 320 324 323 317 316 312 314 313 302 324 342 325 321 328 318 310 322 306 309 337 343 338 344 344 351 4 340 326 331 340 342 344 342 336 335 338 334 325 313 335 353 349 336 318 307 307 312 318 320 316 307 299 295 291 289 288 286 284 280 274 272 275 272 265 264 266 267 269 269 267 264 263 264 260 255 255 258 267 269 258 252 248
256 271 290 308 310 311 310 307 308 305 306 301 295 312 310 300 316 313 298 315 318 298 326 343 339 332 341 2 26 23 357 332 323 345 347 341 332 329 332 330 323 321 320 327 342 348 343 332 315 306 308 316 323 326 323 317 310 305 300 297 295 291 286 279 273 272 268 262 261 260 260 263 264 264 261 257 254 254 258 261 259 265 269 256 247 242
256 275 293 303 303 306 307 304 305 306 302 293 288 287 284 294 309 291 294 318 316 309 319 327 334 332 333 41 39 25 16 345 323 341 338 324 320 325 332 331 324 322 323 326 332 337 339 336 329 320 315 315 319 324 327 325 323 320 316 313 308 300 291 284 278 274 270 266 262 258 258 258 260 262 263 261 256 251 252 255 253 255 261 257 249 243
268 283 292 299 301 302 303 300 302 302 292 291 292 287 282 291 299 294 298 314 317 307 299 310 331 325 318 18 44 20 19 349 328 336 327 313 312 318 329 332 325 323 322 326 330 329 331 333 334 332 323 319 317 318 321 322 322 323 323 321 314 306 297 289 284 279 275 272 267 262 260 259 259 260 259 258 257 254 248 247 247 247 250 251 251 248
271 281 289 295 296 299 301 296 296 294 277 271 279 283 284 283 284 283 286 297 297 286 289 309 313 310 322 352 14 358 345 313 304 328 325 318 318 319 327 329 320 319 321 325 329 326 327 329 334 335 327 321 318 316 317 316 316 317 316 316 312 308 302 295 288 282 277 272 267 262 259 258 259 258 256 255 254 253 247 240 239 241 243 243 244 246
272 280 285 289 291 294 290 285 293 299 272 250 265 279 283 279 277 271 274 286 284 282 301 311 299 308 325 335 349 321 300 299 315 6 48 352 347 334 329 329 320 315 315 321 327 327 327 329 332 335 330 322 315 313 313 309 309 308 306 305 302 301 300 295 288 282 276 271 265 261 257 255 255 255 255 255 252 251 249 241 233 233 238 240 237 240
272 277 281 285 287 287 279 280 296 301 261 252 267 280 278 277 277 264 262 275 278 291 317 301 295 308 313 313 309 285 290 327 336 1 51 28 6 346 331 330 325 319 316 319 328 331 331 331 330 331 329 322 313 308 307 304 301 298 296 296 294 294 294 289 280 275 274 270 264 259 256 251 250 252 254 256 253 250 250 247 239 230 230 236 233 231
273 276 281 284 283 283 283 288 295 288 269 267 276 278 275 278 272 259 259 271 276 288 291 285 293 309 305 302 288 279 319 355 340 350 27 22 360 344 335 332 333 333 327 323 327 328 328 329 327 325 319 313 308 304 301 300 298 294 292 292 293 294 292 287 279 273 275 275 270 263 256 249 247 251 253 254 253 250 249 249 246 239 228 230 231 227
274 277 279 281 283 284 288 291 289 284 279 281 283 277 277 276 262 254 254 266 277 287 276 274 289 302 303 296 297 318 351 354 337 343 6 5 349 342 339 336 338 340 334 328 327 325 321 319 319 319 312 303 297 298 299 300 299 297 295 296 301 302 301 302 297 287 284 283 278 272 266 257 246 243 246 249 249 248 248 247 247 247 238 230 230 228
274 276 277 278 279 282 287 288 289 290 285 286 287 275 273 274 269 264 261 267 276 276 273 273 281 292 301 289 302 331 345 340 332 334 345 347 343 339 335 335 335 336 333 331 329 326 323 318 315 314 311 306 301 302 304 305 304 301 299 301 306 309 311 315 310 302 298 291 283 277 272 262 245 234 237 243 245 245 247 246 246 249 246 238 232 229
271 270 272 273 275 278 283 286 290 293 290 290 286 275 259 258 270 273 266 271 271 264 269 272 273 285 288 275 279 309 318 320 322 325 332 337 340 335 330 331 331 329 330 333 335 332 329 325 321 316 312 310 308 309 310 311 311 308 303 303 308 314 319 320 316 313 309 300 294 290 276 259 243 234 239 246 246 242 243 244 242 243 245 240 233 228
269 275 270 263 267 272 271 273 278 282 288 287 274 277 263 247 261 266 263 268 266 267 273 273 274 287 291 288 286 287 299 312 318 320 324 327 333 332 326 327 328 327 326 330 336 335 331 328 326 325 322 320 316 316 318 318 318 314 307 308 317 322 324 322 318 316 311 300 301 302 282 255 239 234 239 247 247 241 240 242 239 238 240 238 232 227
244 263 264 259 256 257 257 257 260 271 287 282 265 272 273 254 254 255 261 265 257 268 278 275 275 279 286 303 316 289 294 311 310 311 316 316 321 329 330 334 336 334 331 330 330 329 327 326 326 327 329 331 329 328 329 328 326 321 316 321 330 332 333 332 327 323 316 301 298 300 287 269 252 240 240 244 241 237 239 242 237 233 236 236 232 230
226 234 251 258 249 244 246 251 257 265 272 274 279 285 275 265 265 261 260 259 251 262 279 277 276 281 284 289 287 281 293 303 297 296 297 296 315 335 341 347 349 347 343 339 336 334 330 327 325 325 328 334 338 339 340 339 337 335 330 332 336 337 341 344 340 336 330 314 301 300 298 288 272 260 255 252 247 240 239 240 239 237 235 233 231 230
231 239 249 250 245 242 240 246 253 254 256 270 292 282 268 272 281 276 271 270 264 264 275 278 280 292 291 277 243 247 258 257 260 266 271 284 332 344 343 347 350 349 347 344 342 342 341 338 332 326 325 331 337 341 344 347 347 343 333 331 334 337 341 344 342 341 340 329 318 313 309 300 285 271 262 257 254 249 242 237 238 240 235 229 226 226
229 243 249 242 242 244 240 243 247 246 250 262 264 263 272 284 285 271 262 270 274 269 273 280 280 275 277 275 261 264 268 263 260 267 287 324 341 342 337 337 339 340 342 342 338 338 340 342 340 331 324 326 333 337 338 343 345 340 332 328 329 332 335 338 339 338 336 330 322 316 308 298 290 280 270 264 258 252 246 238 235 236 235 229 226 226
231 242 252 248 245 246 246 246 247 246 245 246 251 261 273 282 282 270 258 259 267 268 270 280 284 271 266 276 292 302 307 309 304 306 321 330 331 331 329 329 329 331 337 339 337 335 334 335 338 337 328 321 325 330 331 330 330 330 329 324 324 327 330 332 335 337 337 333 325 316 304 291 286 285 281 275 265 255 250 243 238 236 233 230 228 228
243 243 251 256 254 254 255 252 248 249 246 245 252 261 263 261 262 266 265 259 260 267 269 273 279 273 269 279 292 300 307 309 308 311 315 318 321 323 323 324 324 325 330 334 335 334 333 330 333 337 333 321 316 321 324 323 320 320 322 320 320 325 328 331 334 337 338 335 329 322 311 302 304 308 302 294 281 264 253 246 243 239 232 229 228 227
253 249 251 261 262 258 260 257 253 256 256 254 255 259 262 263 262 266 272 267 260 263 270 273 275 273 273 281 285 289 295 296 297 301 305 310 314 317 319 320 321 321 324 328 329 329 329 328 328 332 333 322 311 310 313 315 316 317 319 321 322 325 329 332 334 336 338 336 332 327 320 318 326 329 320 313 302 282 261 250 247 245 237 233 232 229
252 252 249 258 260 257 262 266 264 265 266 263 263 265 268 270 270 272 277 273 265 263 267 272 274 274 276 279 277 281 285 286 289 295 300 305 309 313 316 317 318 318 319 322 324 324 324 324 324 327 329 322 310 304 304 306 311 314 318 323 327 328 330 330 329 329 331 332 330 325 323 325 331 331 324 318 312 300 277 255 250 249 244 239 235 231
251 257 254 256 260 263 266 268 270 271 270 269 268 269 270 269 269 269 269 271 276 276 272 272 273 273 276 275 272 274 279 282 286 290 295 300 305 310 312 314 314 315 315 317 319 319 318 318 319 322 323 319 308 300 298 300 305 311 317 324 329 330 329 327 324 320 318 321 321 319 321 323 322 320 321 322 320 315 303 270 253 251 248 243 238 233
242 252 255 254 251 252 253 254 257 261 264 268 270 270 270 269 269 269 268 270 275 275 275 276 273 273 276 278 276 275 276 280 284 287 291 296 301 306 308 310 310 310 311 312 313 313 313 313 315 317 318 316 309 301 298 300 304 309 316 324 330 330 326 323 320 316 314 312 310 312 321 323 314 308 313 324 330 329 330 316 276 256 247 242 240 238
247 253 258 259 254 251 252 253 254 256 259 264 268 270 270 270 270 270 269 270 269 270 273 275 272 272 276 281 284 283 282 284 285 287 290 293 297 301 303 304 305 305 306 306 307 308 307 307 310 312 313 312 309 305 302 303 306 309 313 318 323 325 321 317 315 313 312 312 310 313 326 331 321 311 310 318 327 331 337 342 327 289 258 244 239 239
259 262 264 268 271 268 266 269 273 275 275 274 274 274 273 272 273 271 271 272 271 271 275 275 274 277 281 283 286 287 287 287 286 287 290 292 294 297 298 299 300 301 302 303 304 304 304 305 307 308 309 308 306 303 302 301 302 304 306 308 312 315 314 312 310 308 309 311 313 318 330 335 327 320 320 323 326 328 331 337 341 335 306 264 244 239
262 265 264 267 273 274 275 279 282 283 284 285 284 282 280 277 277 275 275 274 274 277 281 278 277 281 285 285 286 286 286 286 285 286 287 289 290 292 293 294 295 297 299 300 302 302 304 306 307 307 305 303 301 300 298 297 297 299 300 302 305 309 310 308 305 303 304 308 314 324 336 337 328 322 324 329 332 331 330 334 340 341 330 301 264 248
263 267 264 263 267 269 273 277 278 278 279 279 280 280 280 280 281 279 277 275 277 281 282 280 281 284 286 287 287 285 284 283 282 283 284 285 286 287 289 290 292 293 295 297 299 300 302 305 306 307 305 301 299 298 297 297 297 297 299 300 302 304 305 305 303 300 301 304 312 327 339 337 326 322 326 333 338 336 333 333 338 341 332 317 295 268
267 270 269 269 270 268 268 271 272 273 273 272 272 273 274 276 279 279 277 276 278 278 278 280 283 285 285 286 285 284 283 282 282 282 282 282 283 284 284 285 286 288 290 293 295 297 299 300 301 303 304 301 298 296 296 296 296 297 297 298 299 300 301 301 300 298 298 299 306 322 334 334 326 322 324 331 338 338 335 331 331 334 329 316 306 292
271 273 272 274 276 273 269 269 271 270 269 269 269 269 270 272 273 274 274 275 275 275 277 280 281 282 283 283 282 282 281 281 281 281 281 281 281 280 281 281 281 283 285 287 289 291 293 295 296 297 299 299 297 295 294 294 294 294 295 294 294 295 297 297 296 295 295 295 298 310 323 330 328 322 319 323 328 329 328 326 324 324 322 314 305 296
274 275 275 276 279 279 273 270 272 272 270 269 268 268 269 269 269 270 271 273 273 274 275 277 277 278 279 279 279 278 278 278 278 278 278 278 275 274 275 277 278 279 280 281 283 285 287 288 289 289 291 292 292 292 291 290 290 291 291 291 291 291 292 293 292 291 292 293 294 300 309 317 319 315 310 311 313 311 309 308 309 311 311 307 301 293
275 277 278 277 279 282 278 273 274 275 272 271 270 269 269 267 267 269 271 271 272 274 275 276 275 275 275 276 276 275 275 275 274 273 272 272 271 270 271 273 274 276 276 277 278 280 281 283 283 282 281 282 285 288 288 287 287 288 289 289 289 288 288 288 289 288 288 289 290 294 299 304 306 304 300 301 304 303 298 292 291 293 293 292 289 285
277 279 280 278 280 282 279 277 280 279 277 276 275 273 271 270 270 272 273 273 273 274 275 275 275 276 276 276 275 274 274 274 273 273 272 271 272 272 273 273 274 274 275 275 278 279 281 283 284 281 277 274 277 284 286 285 284 286 288 289 288 287 286 284 284 285 285 286 287 289 292 296 298 296 293 292 293 295 292 285 279 278 280 281 279 277
278 279 279 280 282 282 281 283 285 283 282 283 283 281 278 276 277 277 277 278 278 277 276 276 277 279 279 277 276 276 275 274 274 275 274 273 272 271 272 273 274 274 274 275 278 280 281 283 283 281 276 271 273 280 282 280 280 283 285 287 287 286 284 283 281 281 282 283 284 285 287 290 293 292 289 285 285 288 289 284 275 269 269 271 271 271
279 279 279 281 282 281 283 287 286 284 284 286 286 285 283 282 283 282 282 283 282 280 278 278 278 279 279 279 279 279 278 277 275 274 274 274 273 271 271 271 271 272 272 274 275 276 277 279 280 278 275 272 275 278 276 274 276 280 282 284 285 284 282 281 281 280 279 279 280 282 284 286 288 288 286 282 282 285 288 287 280 270 264 263 264 265
280 280 281 282 282 282 285 286 285 285 286 287 286 285 284 285 285 285 285 285 284 283 281 281 281 280 280 280 280 280 280 279 277 275 275 274 274 273 272 271 271 272 271 272 273 272 273 276 277 275 273 273 276 276 272 270 272 277 280 281 282 282 281 281 280 279 278 277 277 279 281 282 283 283 282 280 279 279 279 280 279 272 265 261 261 261
278 279 280 281 280 281 283 283 284 285 286 285 285 284 285 285 285 284 284 284 284 283 283 283 283 283 283 282 282 282 281 280 279 278 277 275 273 272 272 272 273 273 273 272 271 271 272 273 274 273 271 272 273 273 271 269 270 275 278 278 278 278 279 280 280 279 277 276 277 278 279 279 279 279 279 278 276 273 270 269 271 271 267 262 259 258
277 278 278 278 278 278 278 279 281 283 282 283 283 283 283 284 284 284 284 283 283 283 282 283 284 285 285 285 285 285 284 284 284 282 279 277 276 274 273 272 272 272 272 272 271 271 271 271 270 270 269 269 269 270 269 269 270 273 274 274 274 275 276 277 278 278 277 276 277 277 277 276 275 275 277 277 276 274 271 266 264 266 266 264 260 257
279 279 278 277 278 277 277 277 278 279 280 281 281 280 281 281 282 283 284 283 281 279 279 280 282 283 284 286 287 286 286 285 284 282 281 280 280 280 279 277 276 274 274 273 273 272 272 271 270 269 269 268 268 268 268 268 269 269 269 269 271 272 272 273 274 276 277 276 276 275 275 274 273 273 275 276 276 276 273 269 265 263 262 263 262 259
280 280 280 279 279 279 279 278 277 278 280 280 279 280 280 281 281 283 283 282 279 275 276 278 279 280 282 285 285 285 284 283 282 282 283 283 283 283 282 281 280 279 278 277 277 276 275 274 272 271 270 269 268 268 267 268 268 268 268 267 267 268 268 269 270 272 274 275 275 274 272 271 271 271 271 272 272 271 269 268 268 265 262 261 262 261
282 282 282 281 281 281 281 280 279 280 281 281 281 282 283 284 285 284 282 280 278 276 276 278 279 280 282 284 284 283 283 283 282 283 283 283 283 282 282 282 282 281 281 280 280 280 279 279 277 276 275 273 272 270 269 268 267 267 266 266 265 265 265 266 267 269 272 273 274 273 272 270 268 268 269 269 269 268 266 266 267 267 266 264 261 260
284 284 284 284 284 283 282 281 280 282 284 285 286 288 289 288 286 283 280 279 280 281 282 283 284 284 285 285 284 284 283 283 282 282 282 281 280 280 279 280 281 281 282 283 283 282 282 281 281 280 279 278 277 275 273 272 270 269 268 266 265 264 264 264 265 267 269 271 271 271 271 269 266 265 266 267 267 266 265 264 264 266 267 267 263 260
288 287 286 286 286 285 285 283 282 284 287 289 290 290 290 288 286 284 284 284 284 286 286 287 287 287 287 286 285 284 284 284 283 283 282 282 282 281 281 281 282 282 283 284 284 284 284 283 283 282 281 281 279 278 276 275 273 272 270 269 267 265 264 264 264 265 267 268 269 269 269 268 266 263 264 264 264 264 263 262 261 263 265 265 264 261
292 291 290 290 289 288 287 286 286 289 292 293 292 291 290 290 289 288 288 288 289 289 289 289 288 287 287 286 286 286 286 286 286 285 286 286 286 286 286 286 286 286 286 286 286 285 285 285 285 284 284 283 283 281 279 277 274 272 270 269 268 267 265 263 263 264 264 265 266 267 268 268 266 263 261 262 262 262 261 260 259 261 263 264 263 259
293 292 292 292 291 290 289 289 290 292 293 294 293 293 292 292 292 291 290 290 290 290 290 289 289 288 288 288 289 289 289 289 289 289 289 289 289 289 289 290 290 290 290 289 288 288 287 287 287 287 287 286 285 284 282 280 278 275 271 269 267 267 265 263 261 261 262 262 263 264 265 265 265 262 260 260 261 260 260 259 258 258 259 260 260 257
293 292 292 291 292 291 291 292 293 293 294 294 294 294 294 293 292 291 291 291 291 290 289 289 289 289 290 290 290 290 290 290 290 290 290 291 291 291 291 291 291 290 290 289 289 288 288 288 288 287 287 286 285 284 283 282 281 278 275 271 268 266 265 263 261 260 259 259 259 260 261 262 263 261 259 259 260 260 259 258 256 256 255 256 257 257
292 292 291 291 291 291 291 292 293 293 294 294 294 293 293 292 292 291 290 290 289 289 288 288 289 290 291 291 291 291 291 291 291 291 291 291 291 291 290 290 290 289 289 288 288 288 288 288 288 287 287 286 285 284 284 284 283 281 278 275 272 268 266 264 262 260 258 258 257 256 257 258 260 260 258 257 258 259 259 258 256 255 253 253 255 256
294 293 292 292 292 291 290 291 292 292 292 292 292 292 291 291 291 291 290 289 288 288 288 289 289 290 291 291 291 291 291 291 291 290 290 290 290 290 290 290 290 289 289 289 289 289 289 289 289 289 288 287 287 286 285 284 283 281 280 278 275 273 270 267 265 261 259 258 256 255 254 255 256 258 257 256 256 257 258 257 256 254 253 252 254 255
294 293 293 293 292 290 290 292 292 291 290 291 291 291 291 291 291 290 289 289 288 288 288 289 289 289 289 289 289 290 290 290 290 290 290 291 291 291 291 291 290 290 289 289 290 290 290 290 290 290 289 288 287 286 286 285 284 282 280 278 276 275 274 272 269 266 262 259 257 255 253 253 253 255 256 255 255 256 257 257 256 254 252 251 252 254
293 292 293 292 291 291 292 292 292 290 290 292 293 293 292 292 292 290 290 290 289 289 290 290 289 288 288 289 289 290 290 289 289 290 291 292 292 292 292 292 291 290 290 290 291 291 292 292 292 291 290 289 288 287 287 286 286 284 282 280 278 276 275 274 273 271 267 262 257 255 253 251 251 252 253 254 254 254 255 256 256 254 252 251 252 253
292 292 292 292 291 292 292 293 292 291 292 293 295 294 293 293 292 292 292 291 291 291 291 291 290 289 289 289 290 289 288 288 290 292 293 293 293 293 292 291 290 290 291 292 293 294 294 294 294 293 292 291 290 289 288 288 287 286 284 282 280 278 276 275 274 273 271 266 260 255 253 251 249 250 251 252 253 253 253 254 255 254 253 252 251 252